Terminal Aerodrome Forecast
Issued by NWS Glasgow, MT

Home | Current Version | Previous Version | Text Only | Print | Product List | Glossary On
Versions: 1 2 3 4 5 6 7 8 9 10 11 12 13
000
FTUS45 KGGW 302300
TAFGGW
TAF
KGGW 302320Z 3100/3124 13009KT P6SM FEW080
     FM311400 VRB05KT P6SM BKN250=

USA.gov is the U.S. government's official web portal to all federal, state and local government web resources and services.